Regional Weather Roundup
Issued by NWS

Home | Current Version | Previous Version | Text Only | Print | Product List | Glossary On
Versions: 1 2 3 4 5 6 7 8 9 10 11 12 13 14 15 16 17 18 19 20 21 22 23 24 25 26 27 28 29 30 31 32 33 34 35 36 37 38 39 40 41 42 43 44 45 46 47 48 49 50
000
ASUS43 KMKX 210400
RWRWI

WISCONSIN REGIONAL WEATHER ROUNDUP
NATIONAL WEATHER SERVICE MILWAUKEE/SULLIVAN WI
1100 PM CDT SUN AUG 20 2017

NOTE: "FAIR" INDICATES FEW OR NO CLOUDS BELOW 12,000 FEET WITH NO
SIGNIFICANT WEATHER AND/OR OBSTRUCTIONS TO VISIBILITY.

WIZ001-002-006>008-014>016-023>028-210500-
NORTHWEST WISCONSIN

CITY           SKY/WX    TMP DP  RH WIND       PRES   REMARKS
SUPERIOR ARPT    N/A     59  56  92 CALM      30.00S
ASHLAND        PTCLDY    61  57  87 S3        30.01S
HAYWARD        CLOUDY    60  58  92 CALM      30.03S
SIREN          PTCLDY    63  59  88 CALM      30.03R
CUMBERLAND     CLOUDY    66  63  88 CALM      30.04R
RICE LAKE      CLOUDY    69  66  90 NW6       30.04R
CHETEK         CLOUDY    71  69  93 CALM      30.02S
LADYSMITH      CLOUDY    72  69  90 W6        30.05R
EAU CLAIRE     MOCLDY    72  68  87 SW3       30.00S
MENOMONIE      CLOUDY    74  68  81 W3        30.02R
NEW RICHMOND   CLEAR     66  63  90 CALM      30.03R
OSCEOLA        CLEAR     65  62  89 CALM      30.05R
$$

WIZ003>005-009-010-017-018-210500-
NORTH CENTRAL WISCONSIN

CITY           SKY/WX    TMP DP  RH WIND       PRES   REMARKS
MANITOWISH WTR CLOUDY    66  66 100 NW3       30.04R
ARBOR VITAE    CLOUDY    72  69  89 CALM      30.03R
WOODRUFF       CLOUDY    72  69  89 CALM      30.03R
RHINELANDER    CLOUDY    70  69  97 W6        30.04R
EAGLE RIVER    CLOUDY    67  67 100 CALM      30.02R
LAND O LAKES   CLOUDY    67  65  93 CALM      30.04R
PHILLIPS       MOCLDY    70  68  93 CALM      30.02R
TOMAHAWK         N/A     68  65  89 CALM      30.04R
MEDFORD        CLOUDY    68  65  89 CALM      30.03S
MERRILL        CLEAR     66  66 100 CALM      30.04R
$$

WIZ029-030-035-036-043>047-210500-
CENTRAL WISCONSIN

CITY           SKY/WX    TMP DP  RH WIND       PRES   REMARKS
WAUSAU         MOCLDY    72  66  81 SW7       30.02R
MOSINEE        CLOUDY    70  66  88 SW7       30.04R
MARSHFIELD     PTCLDY    71  65  81 CALM      30.03R
STEVENS POINT  CLOUDY    70  67  89 S7        30.04R
WAUPACA        PTCLDY    71  68  91 SW3       30.04R
WAUTOMA        CLEAR     68  66  93 CALM      30.04S
WISC RAPIDS    CLOUDY    71  68  90 S3        30.04S
CAMP DOUGLAS   NOT AVBL
$$

WIZ011>013-019>022-031-037>040-048>050-210500-
NORTHEAST WISCONSIN

CITY           SKY/WX    TMP DP  RH WIND       PRES   REMARKS
ANTIGO         CLOUDY    70  66  86 SW8       30.04R
SHAWANO        CLOUDY    73  67  79 S3        30.01R
OCONTO         PTCLDY    73  67  82 SW7       29.99S
STURGEON BAY   PTCLDY    71  68  90 SW8       30.01R
GREEN BAY      CLOUDY    72  69  90 SW6       30.01S
MANITOWOC      NOT AVBL
APPLETON       MOCLDY    70  66  88 W6        30.03R
CLINTONVILLE   MOCLDY    70  64  83 SW6       30.02R
OSHKOSH        CLEAR     71  67  87 SW6       30.04R
$$

WIZ032>034-041-042-053>061-210500-
SOUTHWEST WISCONSIN

CITY           SKY/WX    TMP DP  RH WIND       PRES   REMARKS
LA CROSSE      PTCLDY    78  67  68 S10       30.00F HX  80
SPARTA         PTCLDY    66  65  94 CALM      30.04F
VIROQUA        PTCLDY    69  66  91 CALM      30.06F
BOSCOBEL       CLEAR     65  63  93 CALM      30.05R FOG
PRAIRIE DU CHI CLEAR     67  63  87 CALM      30.05R
PLATTEVILLE    CLEAR     66  66 100 N3        30.05R
$$

WIZ056-057-062-063-064-067-068-210500-
SOUTH CENTRAL WISCONSIN

CITY           SKY/WX    TMP DP  RH WIND       PRES   REMARKS
REEDSBURG      CLEAR     66  66 100 CALM      30.05R
BARABOO/DELLS  CLEAR     67  64  89 CALM      30.06R
LONE ROCK      NOT AVBL
MINERAL POINT  CLEAR     68  68 100 CALM      30.06R
MADISON        CLEAR     67  66  97 CALM      30.04R FOG
MIDDLETON      CLEAR     65  65 100 CALM      30.05R
WATERTOWN      CLEAR     67  67 100 CALM      30.04S
MONROE         CLEAR     70  64  83 N3        30.04S
JANESVILLE     CLEAR     70  70 100 CALM      30.02R
$$

WIZ051-052-058>065-066-070>072-210500-
SOUTHEAST WISCONSIN

CITY           SKY/WX    TMP DP  RH WIND       PRES   REMARKS
MILWAUKEE      PTCLDY    71  66  84 CALM      30.03S
WAUKESHA       CLEAR     66  64  94 CALM      30.06
MILWAUKEE/TIMM CLEAR     70  61  73 CALM      30.05S
RACINE         CLOUDY    70  67  90 NW3       30.05S
KENOSHA        CLOUDY    71  68  90 NE5       30.04S
FOND DU LAC    CLEAR     69  65  86 S5        30.05R
SHEBOYGAN      CLEAR     68  68 100 S6        30.04R
WEST BEND      CLEAR     64  64 100 CALM      30.05R
JUNEAU         CLEAR     66  65  97 CALM      30.07R
$$

LSZ147-162-210500-
LAKE SUPERIOR

STATION/POSITION TIME  TEMP    WIND        PRES    WAVE
                       AIR SEA DIR/SP/G            HT/PER
                 (UTC) (F)     (DEG/KT/KT) (MB)    (FT/S)
W MID LAKE BUOY  0250   65 60  270/ 12/ 14 1013.7R   2/ 4
DEVILS ISLAND    0300   67     260/ 13/ 15 1015.0R
SAXON HARBOR     0340   67     200/  4/  6 1015.6R
$$

LMZ867-665-643>646-210500-
LAKE MICHIGAN

STATION/POSITION TIME  TEMP    WIND        PRES    WAVE
                       AIR SEA DIR/SP/G            HT/PER
                 (UTC) (F)     (DEG/KT/KT) (MB)    (FT/S)
S GREEN BAY BUOY 0300   74 71  210/ 12/ 14 1015.3
N MID LAKE BUOY  0250   69 67  200/ 16/ 17 1014.9R   4/ 5
NORTHPORT PIER   0340   71     200/  3/  7 1014.9R
KEWAUNEE LAKESHO 0330   74     230/  7/ 10 1015.3R
SHEBOYGAN LAKESH 0200   73     190/  4/  4 1015.9R
PORT WASHINGTON  0340   72     240/  2/  3 1017.6S
ATWATER BUOY     0209   73 70  170/  6/  8 1016.9R
MILWAUKEE LAKESH 0330   74     210/  5/  7   N/A
S MID LAKE BUOY  0250   74 72  150/  6/  8 1016.9R   0
KENOSHA   LAKESH 0300   76     270/  2/  3 1016.6
$$

TC  - TEMPERATURE IN CELSIUS
VSB - VISIBILITY IN STATUTE MILES
WCI - WIND CHILL INDEX
HX  - HEAT INDEX





USA.gov is the U.S. government's official web portal to all federal, state and local government web resources and services.